www.pogodaiklimat.ru

Погода и климат >> Архив погоды >> Таиланд >> Satun


ПОГОДА в Satun

  • Прогноз погоды в Satun
  • Монитор погоды в Satun
  • Климат города

АРХИВ ПОГОДЫ в Satun

Время (UTC), дата Ветер
(напр.,м/с)
 
Видим.   Явления Облачность Т
(С)
Тd
(С)
f
(%)
Тe
(С)
Тes
(С)
Комфортность P
(гПа)
Po
(гПа)
Тmin
(С)
Tmax
(С)
R
(мм)
R24
(мм)
S
(см)
03 14.05 штиль 0 10 км 8/3 600 м
[Cu med, cong Cs]
+31.3 +24.5 67 +44 +55 опасность
перегрева
1010.5 1009.9
06 14.05 штиль 0 10 км 8/3 600 м
[Cu med, cong Ac lent Cs]
+33.0 +25.7 66 +48 +61 опасность
перегрева
1008.2 1007.5
09 14.05 штиль 0 6000 м гроза, ливневой дождь 10/4 600 м
[Cb cap Ac As Cs]
+24.7 +24.4 98 +34 +37 очень
душно
1007.1 1006.4 14
12 14.05 штиль 0 10 км {гроза} 8/3 600 м
[Cu med, cong Ac lent Cs]
+24.5 +23.8 96 +33 +33 очень
душно
1009.3 1008.6 +33.5 6
15 14.05 штиль 0 10 км 8/3 600 м
[Cu med, cong Cs]
+25.3 +24.9 98 +36 +36 очень
душно
1010.3 1009.6
18 14.05 штиль 0 10 км 8/3 600 м
[Cu med, cong Cs]
+25.0 +24.4 96 +35 +35 очень
душно
1009.0 1008.3
00 15.05 штиль 0 10 км 8/3 600 м
[Cu med, cong Ac lent Cs]
+25.0 +24.4 96 +35 +35 очень
душно
1008.6 1007.9 +24.4
03 15.05 штиль 0 10 км 8/3 600 м
[Cu med, cong Ac lent Cs]
+30.4 +25.9 77 +45 +54 опасность
перегрева
1009.3 1008.6
06 15.05 штиль 0 10 км 9/4 600 м
[Cu Sc Ac lent Cs]
+32.6 +25.7 67 +48 +57 опасность
перегрева
1007.5 1006.8
09 15.05 штиль 0 10 км гроза без осадков 10/5 600 м
[Cb cap Ac As Cs]
+25.1 +24.2 95 +35 +37 очень
душно
1006.0 1005.3 15
12 15.05 штиль 0 10 км {гроза} 8/3 600 м
[Cu med, cong Ac lent Cs]
+26.5 +25.1 92 +38 +38 очень
душно
1007.0 1006.3 +33.5 15
15 15.05 штиль 0 10 км 8/3 600 м
[Cu med, cong Ac lent Cs]
+25.8 +24.6 93 +36 +36 очень
душно
1009.1 1008.4
18 15.05 штиль 0 10 км 8/3 600 м
[Cu med, cong Ac lent Cs]
+25.5 +24.5 94 +36 +36 очень
душно
1008.4 1007.7
21 15.05 штиль 0 10 км 6/3 600 м
[Cu med, cong Cs]
+25.0 +24.0 94 +34 +34 очень
душно
1006.8 1006.1
00 16.05 штиль 0 10 км 6/3 600 м
[Cu med, cong Cs]
+25.0 +24.1 95 +34 +35 очень
душно
1007.6 1006.9 +24.2
03 16.05 штиль 0 10 км 8/3 600 м
[Cu med, cong Cs]
+30.4 +25.2 74 +44 +56 опасность
перегрева
1009.0 1008.3
06 16.05 штиль 0 10 км {дождь} 10/5 600 м
[Cu med, cong Ac As Cs]
+29.0 +25.9 83 +43 +50 опасность
перегрева
1007.5 1006.8 2
09 16.05 штиль 0 10 км 9/3 600 м
[Cu med, cong Ac lent Cs]
+27.7 +24.8 84 +39 +43 очень
душно
1005.2 1004.6
12 16.05 штиль 0 10 км зарница {дождь} 6/1 600 м
[Cb cap Cs]
+26.9 +25.2 90 +39 +39 очень
душно
1006.6 1005.9 +31.5 0.1
15 16.05 штиль 0 10 км 6/3 600 м
[Cu med, cong Cs]
+25.9 +23.9 89 +36 +36 очень
душно
1009.8 1009.2
18 16.05 штиль 0 10 км 6/3 600 м
[Cu med, cong Cs]
+25.0 +23.5 91 +34 +34 очень
душно
1008.3 1007.6
21 16.05 штиль 0 10 км 6/3 600 м
[Cu med, cong Cs]
+24.0 +22.5 91 +31 +31 очень
душно
1006.9 1006.2
00 17.05 штиль 0 10 км 8/1 600 м
[Cu med, cong Cs]
+24.7 +23.7 94 +34 +34 очень
душно
1006.8 1006.1 +23.0
03 17.05 штиль 0 10 км 8/4 600 м
[Cu Sc Ac lent Cs]
+29.9 +25.8 79 +45 +52 опасность
перегрева
1009.3 1008.6
06 17.05 штиль 0 6000 м гроза, ливневой дождь 10/5 600 м
[Cb cap Ac As Cs]
+27.0 +25.6 92 +40 +47 очень
душно
1007.9 1007.2 14
09 17.05 штиль 0 10 км {гроза} 9/3 600 м
[Cu med, cong Ac lent Cs]
+27.8 +25.2 86 +40 +44 очень
душно
1005.9 1005.2 2
12 17.05 штиль 0 10 км {гроза} 9/3 600 м
[Cu med, cong Ac lent Cs]
+27.9 +26.1 90 +42 +42 опасность
перегрева
1006.7 1006.0 +32.2 16
15 17.05 штиль 0 10 км 9/3 600 м
[Cu med, cong Ac lent Cs]
+26.9 +25.5 92 +39 +39 очень
душно
1009.1 1008.4
18 17.05 штиль 0 10 км 9/3 600 м
[Cu med, cong Ac lent Cs]
+26.3 +25.1 93 +38 +38 очень
душно
1008.3 1007.7
21 17.05 штиль 0 10 км 9/3 600 м
[Cu med, cong Ac lent Cs]
+26.1 +25.2 95 +38 +38 очень
душно
1007.3 1006.6
00 18.05 штиль 0 10 км 9/3 600 м
[Cu med, cong Ac lent Cs]
+25.8 +24.9 95 +37 +37 очень
душно
1007.9 1007.2 +25.1
03 18.05 штиль 0 10 км 9/3 600 м
[Cu med, cong Ac lent Cs]
+28.5 +25.5 84 +42 +50 опасность
перегрева
1008.1 1007.5
06 18.05 З 6 10 км 9/4 600 м
[Cu med, cong Ac lent Cs]
+31.4 +25.2 70 +45 +48 опасность
перегрева
1007.0 1006.4
09 18.05 штиль 0 6000 м гроза, ливневой дождь 10/3 600 м
[Cb cap Ac As Cs]
+26.0 +24.6 92 +37 +40 очень
душно
1005.8 1005.1 4
12 18.05 штиль 0 10 км {гроза, дождь} 8/1 600 м
[Cu med, cong Ac lent Cs]
+25.2 +24.5 96 +35 +35 очень
душно
1006.0 1005.4 +32.4 0.1
15 18.05 штиль 0 10 км зарница 6/1 600 м
[Cb cap Cs]
+25.0 +23.5 91 +34 +34 очень
душно
1008.7 1008.0
18 18.05 штиль 0 10 км 6/1 600 м
[Cu med, cong Cs]
+24.5 +23.0 91 +32 +32 очень
душно
1008.0 1007.3
21 18.05 штиль 0 10 км 5/1 600 м
[Cu med, cong Cs]
+23.5 +22.0 91 +30 +30 очень
душно
1006.9 1006.2
00 19.05 штиль 0 10 км 8/3 600 м
[Cu med, cong Cs]
+24.4 +23.5 95 +33 +34 очень
душно
1007.5 1006.8 +22.7
03 19.05 штиль 0 10 км 8/1 600 м
[Cu med, cong Cs]
+29.3 +25.0 78 +42 +57 опасность
перегрева
1008.4 1007.7
06 19.05 штиль 0 10 км 8/4 600 м
[Cu med, cong Cs]
+33.0 +24.5 61 +46 +60 опасность
перегрева
1006.2 1005.5
09 19.05 З 5 10 км {гроза} 9/4 600 м
[Cu med, cong Cs]
+29.1 +24.8 78 +42 +44 опасность
перегрева
1005.3 1004.6
12 19.05 штиль 0 10 км {гроза} 8/3 600 м
[Cu med, cong Cs]
+25.7 +24.2 91 +36 +36 очень
душно
1006.7 1006.0 +33.7
15 19.05 штиль 0 10 км 8/3 600 м
[Cb cap Cs]
+26.0 +24.6 92 +37 +37 очень
душно
1009.1 1008.4
18 19.05 штиль 0 10 км 5/1 600 м
[Cu med, cong Cs]
+25.0 +23.5 91 +34 +34 очень
душно
1008.3 1007.6
21 19.05 штиль 0 10 км 5/1 600 м
[Cu med, cong Cs]
+24.9 +23.6 92 +34 +34 очень
душно
1006.7 1006.0
00 20.05 штиль 0 10 км 9/3 600 м
[Cu med, cong Cs]
+25.7 +25.0 96 +37 +37 очень
душно
1007.6 1006.9 +24.3
03 20.05 штиль 0 10 км 9/3 600 м
[Cu med, cong Ac lent Cs]
+28.0 +26.3 91 +43 +51 опасность
перегрева
1009.0 1008.3
06 20.05 штиль 0 10 км 9/3 600 м
[Cu med, cong Ac lent Cs]
+32.8 +25.3 65 +47 +58 опасность
перегрева
1007.7 1007.0
09 20.05 штиль 0 10 км 8/3 600 м
[Cu med, cong Cs]
+31.2 +26.0 74 +47 +53 опасность
перегрева
1005.6 1004.9
12 20.05 штиль 0 10 км 8/3 600 м
[Cu med, cong Cs]
+29.0 +26.2 85 +44 +44 опасность
перегрева
1006.8 1006.1 +33.5
15 20.05 штиль 0 10 км зарница {дождь} 9/4 600 м
[Cb cap Ac lent Cs]
+27.8 +25.8 89 +41 +41 опасность
перегрева
1008.2 1007.6 0.0
18 20.05 штиль 0 10 км {дождь} 8/3 600 м
[Cu med, cong Cs]
+27.0 +25.6 92 +40 +40 очень
душно
1008.1 1007.4
21 20.05 штиль 0 10 км 8/3 600 м
[Cu med, cong Cs]
+26.0 +25.3 96 +38 +38 очень
душно
1006.8 1006.1
00 21.05 штиль 0 10 км 9/3 600 м
[Cu med, cong Ac lent Cs]
+26.1 +25.2 95 +38 +38 очень
душно
1008.5 1007.8 +25.3

 

Местоположение метеостанции Satun (Таиланд): широта 6.65 долгота 100.08 высота над уровнем моря 6 м.

В архиве по умолчанию представлена погода в Satun за последнюю неделю. Архивные данные за месяц целиком и за предыдущие месяцы, начиная с января 2011 года, Вы можете получить, выбрав интересующий диапазон дат из раскрывающегося списка и нажав кнопку "Ввод!".


*Определитесь, кто Вы:
робот инопланетянин человек

Внимание! Время в таблицах - всемирное. Для получения местного времени необходимо прибавить поправку, которая в Satun равна 7 ч.

Смотрите также архив погоды в соседних городах и на ближайших метеорологических станциях:

Погода в Sadao (Таиланд) (39 км)
Погода в Hat Yai (Таиланд) (49 км)
Погода в Langkawi (Малайзия) (53 км)
Погода в Alor Star (Малайзия) (61 км)
Погода в Songkhla (Таиланд) (85 км)
Погода в Phatthalung Agromet (Таиланд) (104 км)
Погода в Trang (Таиланд) (109 км)
Погода в Pattani (Таиланд) (119 км)
Погода в Yala Agromet (Таиланд) (133 км)
Погода в Butterworth Air Base (Малайзия) (135 км)

Пояснения к столбцам:

Ветер - указаны скорость ветра в м/с - средняя за 10 мин, порывы в срок и между сроками (в фигурных скобках) и направление, откуда дует ветер: С - северный, СВ - северо-восточный, В - восточный, ЮВ - юго-восточный, Ю - южный, ЮЗ - юго-западный, З - западный, СЗ - северо-западный.
Видимость - горизонтальная дальность видимости в метрах или километрах. При видимости от 1 до 10 км при отсутствии осадков обычно наблюдается дымка, при ухудшении видимости до 1 км и менее - туман. В сухую погоду видимость может ухудшаться дымом, пылью или мглою.
Явления - указаны атмосферные явления, наблюдавшиеся в срок или в последний час перед сроком; фигурными скобками обозначены явления, наблюдавшиеся между сроками (за 1-3 часа до срока); квадратными скобками обозначены град или гололедные отложения с указанием их диаметра в мм.
Облачность - указаны через наклонную черту общая и нижняя облачность в баллах и высота нижней границы облаков в метрах; квадратными скобками обозначены формы облаков: Ci - перистые, Cs - перисто-слоистые, Cc - перисто-кучевые, Ac - высококучевые, As - высокослоистые, Sc - слоисто-кучевые, Ns - слоисто-дождевые, Cu - кучевые, Cb - кучево-дождевые. Подробнее классификацию облаков см. в Атласе облаков (PDF).
T - Температура воздуха - температура, измеренная на высоте 2 м над землей.
Td - Температура точки росы - температура, при понижении до которой содержащийся в воздухе водяной пар достигнет насыщения.
f - Относительная влажность воздуха - влажноcть воздуха, измеренная на высоте 2 м над землей.
Te - Эффективная температура - температура, которую ощущает одетый по сезону человек в тени. Характеристика душности погоды. При расчете учитывается влияние влажности воздуха и скорости ветра на теплоощущения человека.
Tes - Эффективная температура на солнце - температура, которую ощущает человек, с поправкой на солнечный нагрев. Характеристика знойности погоды. Зависит от высоты солнца над горизонтом, облачности и скорости ветра. Ночью, в пасмурную погоду, а также при ветре 12 м/с и более поправка равна нулю.
P - Атмосферное давление - приведенное к уровню моря атмосферное давление.
Po - Атмосферное давление - измеренное на уровне метеостанции атмосферное давление.
Tmin - Минимальная температура - минимум температуры воздуха на высоте 2 м над землей.
Tmax - Максимальная температура - максимум температуры воздуха на высоте 2 м над землей.
R - Количество осадков - Количество выпавших осадков за период времени, мм. При наведении курсора мыши на число - период времени, за который выпало указанное количество осадков.
R24 - Количество осадков - Количество выпавших осадков за 24 часа, мм.
S - Снежный покров - Высота снежного покрова, см. При наведении курсора мыши на число - состояние снежного покрова и степень покрытия местности в баллах.